Overview Statistics Trail Chart Weather Telemetry Raw packets
 

This is the latest recevied weather packets stored in our database for station/object AB2HM. If no packets are shown the sender has not sent any weather packets the latest 10 day(s).

<< 7 8 9 10 11 12 13 >>
Time Temp. Humidity Pressure Rain* Wind** Luminosity Snow
1788208388 28.33° C 61% 1020.2 hPa 0 mm - - -
1788206582 27.22° C 63% 1020.3 hPa 0 mm - - -
1788204779 27.22° C 64% 1020.7 hPa 0 mm - - -
1788202969 27.78° C 63% 1021 hPa 0 mm - - -
1788201165 27.78° C 60% 1021 hPa 0 mm - - -
1788199355 28.33° C 58% 1021.1 hPa 0 mm - - -
1788197546 27.78° C 61% 1021.2 hPa 0 mm - - -
1788195739 27.78° C 60% 1021.3 hPa 0 mm - - -
1788193924 27.78° C 61% 1021.5 hPa 0 mm - - -
1788192106 26.67° C 64% 1021.5 hPa 0 mm - - -
1788190301 26.11° C 65% 1021.5 hPa 0 mm - - -
1788188476 26.11° C 68% 1021.7 hPa 0 mm - - -
1788186668 25° C 71% 1021.8 hPa 0 mm - - -
1788184863 24.44° C 78% 1021.7 hPa 0 mm - - -
1788183052 23.89° C 84% 1021.6 hPa 0 mm - - -
1788181244 22.78° C 90% 1021.8 hPa 0 mm - - -
1788179445 22.22° C 92% 1021.7 hPa 0 mm - - -
1788177644 21.67° C 93% 1021.6 hPa 0 mm - - -
1788175831 21.67° C 93% 1021.4 hPa 0 mm - - -
1788174028 22.22° C 93% 1021.2 hPa 0 mm - - -
1788172225 22.22° C 93% 1020.9 hPa 0 mm - - -
1788170413 22.22° C 93% 1020.7 hPa 0 mm - - -
1788168608 22.22° C 93% 1020.3 hPa 0 mm - - -
1788166781 21.67° C 92% 1020.2 hPa 0 mm - - -
1788164978 22.22° C 92% 1020 hPa 0 mm - - -

* Rain latest hour (hover to see other rain measurements)
** Current wind speed in m/s (hover to see current wind gust speed)